Flag for U.S.A. Weather past 2 weeks in Juneau, Alaska, U.S.A.

Now
40 °F

Passing clouds.


Feels Like: 35 °F
Forecast: 27 / 37 °F
Wind: 7 mph from East

Location: Juneau International Airport

Current Time: Dec 22, 2014 at 6:55:04 PM

Latest Report: Dec 22, 2014 at 5:53 PM


Visibility: 10 mi

Pressure: 30.08 "Hg

Humidity: 89%

Dew point: 37 °F

Location of JuneauLocation

Historic Weather in Juneau — Graph

°F

Juneau temperature yesterday

Maximum temperature yesterday: 38 °F (at 7:53 PM)
Minimum temperature yesterday: 35 °F (at 12:53 AM)
Average temperature yesterday: 36 °F

Past Weeks' High & Low Weather Summary

 TemperatureHumidityPressure
High46 °F (Dec 14, 9:53 PM)100% (Dec 7, 9:53 PM)30.11 "Hg (Dec 7, 9:53 PM)
Low30 °F (Dec 17, 10:53 PM)56% (Dec 15, 7:53 AM)28.82 "Hg (Dec 9, 1:53 PM)
Average37 °F91%29.44 "Hg
* Reported Dec 7 4:53 PM — Dec 22 4:53 PM, Juneau, Weather by CustomWeather, © 2014

Note: Actual official high and low records may vary slightly from our data, if they occured in-between our weather recording intervals... More about our weather records

Advertising

Juneau weather history for previous 24 hours

 ConditionsComfort  
Time TempWeatherWind HumidityBarometerVisibility
4:53 PM
Dec 22
40 °FMostly cloudy.10 mph93%30.09 "Hg10 mi
3:53 PM40 °FPartly cloudy.9 mph89%30.09 "Hg10 mi
2:53 PM40 °FMostly cloudy.8 mph93%30.11 "Hg10 mi
1:53 PM41 °FMostly cloudy.7 mph89%30.11 "Hg10 mi
12:53 PM40 °FMostly cloudy.7 mph89%30.11 "Hg10 mi
11:53 AM40 °FLight rain. Cloudy.5 mph89%30.09 "Hg10 mi
10:53 AM40 °FRain. Mostly cloudy.6 mph93%30.08 "Hg7 mi
9:53 AM40 °FLight rain. Mostly cloudy.9 mph93%30.05 "Hg10 mi
8:53 AM39 °FMostly cloudy.8 mph93%30.02 "Hg10 mi
7:53 AM38 °FLight rain. Mostly cloudy.7 mph97%29.98 "Hg9 mi
6:53 AM38 °FLight rain. Overcast.6 mph93%29.96 "Hg9 mi
5:53 AM38 °FLight rain. Mostly cloudy.6 mph93%29.93 "Hg9 mi
4:53 AM38 °FLight rain. Mostly cloudy.9 mph97%29.90 "Hg7 mi
3:53 AM39 °FLight rain. Low clouds.9 mph93%29.88 "Hg10 mi
2:53 AM38 °FLight rain. Mostly cloudy.8 mph97%29.85 "Hg10 mi
1:53 AM38 °FLight rain. Low clouds.12 mph93%29.82 "Hg10 mi
12:53 AM38 °FLight rain. Low clouds.13 mph93%29.79 "Hg10 mi
11:53 PM
Dec 21
38 °FLight rain. Mostly cloudy.12 mph93%29.75 "Hg10 mi
10:53 PM38 °FMostly cloudy.16 mph93%29.72 "Hg10 mi
9:53 PM38 °FLow clouds.10 mph93%29.69 "Hg10 mi
8:53 PM38 °FMostly cloudy.8 mph93%29.65 "Hg10 mi
7:53 PM38 °FMostly cloudy.5 mph93%29.62 "Hg10 mi
6:53 PM37 °FLight rain. Overcast.6 mph96%29.59 "Hg7 mi
Weather by CustomWeather, © 2014

See weather overviewHow to use our weather pages